Flight Track Log - Related Links

Times and Time Zones

All times are in EDT time to prevent confusion due to time zone crossing. See the UAL495 flight status page for this flight to view local times or setup timezone preferences in your user account.

Time Position Orientation Groundspeed Altitude Reporting Facility
EDT Latitude Longitude Course Direction KTS MPH feet Rate Location/Type
Tue 12:52:56 PM 39.9167 -104.6833 85° East 199 229 7,000  Level Denver TRACON
Tue 12:54:02 PM 39.9500 -104.5833 66° East 241 277 9,800 1,500 Climbing Denver TRACON
Tue 12:54:56 PM 39.9500 -104.5000 90° East 278 320 10,000 158 Climbing Denver TRACON
Tue 12:55:00 PM 39.8667 -104.1573 90° East  Level FlightAware Approximate
Tue 12:55:56 PM 39.9500 -104.4000 90° East 284 327 10,100  Level Denver TRACON
Tue 12:56:00 PM 39.8667 -103.9871 90° East  Level FlightAware Approximate
Tue 12:57:00 PM 39.8667 -103.8169 90° East  Level FlightAware Approximate
Tue 12:57:02 PM 39.9333 -104.2833 101° East 325 374 11,100  Level Denver TRACON
Tue 12:57:56 PM 39.9000 -104.1667 110° East 361 415 13,200 2,333 Climbing Denver TRACON
Tue 12:58:00 PM 39.8857 -103.6502 85° East  Level FlightAware Approximate
Tue 12:58:14 PM 39.9019 -104.1328 86° East 359 413 13,900  Level Denver Center
Tue 12:59:17 PM 39.8833 -103.9983 100° East 379 436 16,400 2,256 Climbing Denver Center
Tue 01:00:19 PM 39.8731 -103.8403 95° East 410 472 18,600 1,984 Climbing Denver Center
Tue 01:01:21 PM 39.8878 -103.6894 83° East 418 481 20,500 1,935 Climbing Denver Center
Tue 01:02:23 PM 39.9067 -103.5269 81° East 445 512 22,600 1,790 Climbing Denver Center
Tue 01:03:25 PM 39.9256 -103.3600 82° East 458 527 24,200 1,500 Climbing Denver Center
Tue 01:04:27 PM 39.9453 -103.1833 82° East 481 554 25,700 1,403 Climbing Denver Center
Tue 01:05:29 PM 39.9694 -102.9678 82° East 507 583 27,100 1,500 Climbing Denver Center
Tue 01:06:31 PM 39.9894 -102.7764 82° East 525 604 28,800 1,597 Climbing Denver Center
Tue 01:07:33 PM 40.0092 -102.5922 82° East 532 612 30,400 1,597 Climbing Denver Center
Tue 01:08:35 PM 40.0328 -102.3797 82° East 531 611 32,100 1,258 Climbing Denver Center
Tue 01:09:37 PM 40.0511 -102.1950 83° East 535 616 33,000 435 Climbing Denver Center
Tue 01:10:39 PM 40.0728 -101.9764 83° East 544 626 33,000  Level Denver Center
Tue 01:11:41 PM 40.0919 -101.7883 82° East 547 629 33,000  Level Denver Center
Tue 01:12:43 PM 40.1142 -101.5678 82° East 550 633 33,000  Level Denver Center
Tue 01:13:46 PM 40.1314 -101.3783 83° East 551 634 33,000  Level Denver Center
Tue 01:14:48 PM 40.1519 -101.1611 83° East 544 626 33,000  Level Denver Center
Tue 01:15:50 PM 40.1697 -100.9758 83° East 541 623 33,000  Level Denver Center
Tue 01:16:52 PM 40.1894 -100.7603 83° East 538 619 33,000  Level Denver Center
Tue 01:17:54 PM 40.2039 -100.5761 84° East 537 618 33,000  Level Denver Center
Tue 01:18:56 PM 40.2081 -100.3625 88° East 530 610 33,000  Level Denver Center
Tue 01:19:58 PM 40.2114 -100.1792 89° East 530 610 33,000  Level Denver Center
Tue 01:21:00 PM 40.2142 -99.9647 89° East 530 610 33,000  Level Denver Center
Tue 01:22:02 PM 40.2161 -99.7689 89° East 532 612 33,000  Level Denver Center
Tue 01:23:04 PM 40.2181 -99.5786 89° East 527 606 33,000  Level Denver Center
Tue 01:24:05 PM 40.2200 -99.3853 89° East 531 611 33,000  Level Denver Center
Tue 01:25:07 PM 40.2217 -99.1922 89° East 532 612 33,000  Level Denver Center
Tue 01:26:09 PM 40.2231 -99.0011 89° East 530 610 33,000  Level Denver Center
Tue 01:27:11 PM 40.2236 -98.8106 90° East 528 608 33,000  Level Denver Center
Tue 01:28:13 PM 40.2233 -98.5817 90° East 527 606 33,000  Level Denver Center
Tue 01:29:22 PM 40.2228 -98.3906 90° East 528 608 33,000  Level Minneapolis Center
Tue 01:30:24 PM 40.2228 -98.1611 90° East 528 608 33,000  Level Minneapolis Center
Tue 01:31:26 PM 40.2281 -97.9700 88° East 528 608 33,000  Level Minneapolis Center
Tue 01:32:28 PM 40.2489 -97.7806 82° East 527 606 33,000  Level Minneapolis Center
Tue 01:33:30 PM 40.2675 -97.5897 83° East 530 610 33,000  Level Minneapolis Center
Tue 01:34:32 PM 40.2819 -97.3989 84° East 528 608 33,000  Level Minneapolis Center
Tue 01:35:34 PM 40.2981 -97.1897 84° East 524 603 33,000  Level Minneapolis Center
Tue 01:36:36 PM 40.3128 -97.0031 84° East 520 598 33,000  Level Minneapolis Center
Tue 01:37:38 PM 40.3272 -96.8150 84° East 520 598 33,000  Level Minneapolis Center
Tue 01:38:39 PM 40.3403 -96.6256 85° East 522 601 33,000  Level Minneapolis Center
Tue 01:39:41 PM 40.3550 -96.4381 84° East 520 598 33,000  Level Minneapolis Center
Tue 01:40:43 PM 40.3706 -96.2111 85° East 523 602 33,000  Level Minneapolis Center
Tue 01:41:45 PM 40.3850 -96.0225 84° East 522 601 33,000  Level Minneapolis Center
Tue 01:42:47 PM 40.4000 -95.8306 84° East 529 609 33,000  Level Minneapolis Center
Tue 01:43:49 PM 40.4136 -95.6431 84° East 525 604 33,000  Level Minneapolis Center
Tue 01:44:51 PM 40.4269 -95.4547 85° East 522 601 33,000  Level Minneapolis Center
Tue 01:45:52 PM 40.4397 -95.2658 85° East 522 601 33,000  Level Minneapolis Center
Tue 01:46:54 PM 40.4553 -95.0400 85° East 521 600 33,000  Level Minneapolis Center
Tue 01:47:56 PM 40.4675 -94.8511 85° East 521 600 33,000  Level Minneapolis Center
Tue 01:48:58 PM 40.4800 -94.6628 85° East 520 598 33,000  Level Minneapolis Center
Tue 01:50:00 PM 40.4883 -94.4931 86° East 518 596 33,000  Level Minneapolis Center
Tue 01:51:01 PM 40.5033 -94.2675 85° East 519 597 33,000  Level Minneapolis Center
Tue 01:52:03 PM 40.5139 -94.0797 86° East 519 597 33,000  Level Minneapolis Center
Tue 01:53:05 PM 40.5244 -93.8928 86° East 518 596 33,000  Level Minneapolis Center
Tue 01:54:07 PM 40.5339 -93.7058 86° East 517 595 33,000  Level Minneapolis Center
Tue 01:55:09 PM 40.5436 -93.5183 86° East 515 593 33,000  Level Minneapolis Center
Tue 01:56:10 PM 40.5531 -93.3314 86° East 516 594 33,000  Level Minneapolis Center
Tue 01:56:50 PM 40.5586 -93.1814 87° East 513 590 33,000  Level Kansas City Center
Tue 01:57:51 PM 40.5672 -93.0031 86° East 512 589 33,000  Level Kansas City Center
Tue 01:58:55 PM 40.5775 -92.7936 86° East 513 590 33,000  Level Kansas City Center
Tue 01:59:55 PM 40.5858 -92.6281 86° East 514 592 33,000  Level Kansas City Center
Tue 02:00:58 PM 40.5956 -92.4300 86° East 512 589 33,000  Level Kansas City Center
Tue 02:01:59 PM 40.6042 -92.2425 86° East 511 588 33,000  Level Kansas City Center
Tue 02:02:59 PM 40.6106 -92.0567 87° East 510 587 33,000  Level Kansas City Center
Tue 02:04:01 PM 40.6172 -91.8703 87° East 511 588 33,000  Level Kansas City Center
Tue 02:04:51 PM 40.6250 -91.6842 87° East 511 588 33,000  Level Chicago Center
Tue 02:05:53 PM 40.6306 -91.4989 88° East 511 588 33,000  Level Chicago Center
Tue 02:06:55 PM 40.6386 -91.3128 87° East 512 589 33,000  Level Chicago Center
Tue 02:07:57 PM 40.6442 -91.1369 88° East 510 587 33,000  Level Chicago Center
Tue 02:08:59 PM 40.6506 -90.9150 88° East 506 582 33,000  Level Chicago Center
Tue 02:10:01 PM 40.6556 -90.7294 88° East 508 585 33,000  Level Chicago Center
Tue 02:11:03 PM 40.6608 -90.5447 88° East 506 582 33,000  Level Chicago Center
Tue 02:12:05 PM 40.6656 -90.3597 88° East 504 580 33,000  Level Chicago Center
Tue 02:13:06 PM 40.6700 -90.1575 88° East 504 580 33,000  Level Chicago Center
Tue 02:14:08 PM 40.6742 -89.9772 88° East 497 572 33,000  Level Chicago Center
Tue 02:15:10 PM 40.6747 -89.7953 90° East 500 575 33,000  Level Chicago Center
Tue 02:16:12 PM 40.6417 -89.6275 105° East 477 549 33,000  Level Chicago Center
Tue 02:17:14 PM 40.5978 -89.4558 109° East 474 545 33,000  Level Chicago Center
Tue 02:18:16 PM 40.5572 -89.2886 108° East 479 551 33,000  Level Chicago Center
Tue 02:19:18 PM 40.5103 -89.0883 107° East 479 551 33,000  Level Chicago Center
Tue 02:20:20 PM 40.4692 -88.9206 108° East 480 552 33,000  Level Chicago Center
Tue 02:21:22 PM 40.4278 -88.7483 107° East 490 564 33,000  Level Chicago Center
Tue 02:22:24 PM 40.3856 -88.5744 108° East 499 574 33,000  Level Chicago Center
Tue 02:23:26 PM 40.3400 -88.3803 107° East 505 581 33,000  Level Chicago Center
Tue 02:24:28 PM 40.3286 -88.1975 95° East 511 588 33,000  Level Chicago Center
Tue 02:25:30 PM 40.3264 -88.0122 91° East 514 592 33,000  Level Chicago Center
Tue 02:26:23 PM 40.3239 -87.8342 91° East 514 592 33,000  Level Indianapolis Center
Tue 02:27:25 PM 40.3217 -87.6531 91° East 509 586 33,000  Level Indianapolis Center
Tue 02:28:27 PM 40.3206 -87.4731 90° East 497 572 33,000  Level Indianapolis Center
Tue 02:29:29 PM 40.3172 -87.2958 91° East 489 563 33,000  Level Indianapolis Center
Tue 02:30:31 PM 40.3153 -87.1183 91° East 485 558 33,000  Level Indianapolis Center
Tue 02:31:32 PM 40.3117 -86.9408 91° East 484 557 33,000  Level Indianapolis Center
Tue 02:32:34 PM 40.3081 -86.7631 91° East 485 558 33,000  Level Indianapolis Center
Tue 02:33:36 PM 40.3044 -86.5478 91° East 488 562 33,000  Level Indianapolis Center
Tue 02:34:38 PM 40.3000 -86.3636 92° East 499 574 33,000 -49 Level Indianapolis Center
Tue 02:35:39 PM 40.2969 -86.1828 91° East 501 577 32,900 -49 Descending Indianapolis Center
Tue 02:36:41 PM 40.2900 -85.9983 93° East 502 578 32,900 48 Level Indianapolis Center
Tue 02:37:43 PM 40.2844 -85.8147 92° East 503 579 33,000 48 Climbing Indianapolis Center
Tue 02:38:45 PM 40.2778 -85.6289 93° East 504 580 33,000 -48 Level Indianapolis Center
Tue 02:39:47 PM 40.2733 -85.4453 92° East 502 578 32,900 -49 Descending Indianapolis Center
Tue 02:40:48 PM 40.2653 -85.2306 93° East 502 578 32,900  Level Indianapolis Center
Tue 02:41:50 PM 40.2578 -85.0472 93° East 501 577 32,900 48 Level Indianapolis Center
Tue 02:42:52 PM 40.2503 -84.8653 93° East 498 573 33,000 339 Climbing Indianapolis Center
Tue 02:43:54 PM 40.2425 -84.6819 93° East 501 577 33,600 878 Climbing Indianapolis Center
Tue 02:44:55 PM 40.2367 -84.4953 92° East 509 586 34,800 683 Climbing Indianapolis Center
Tue 02:45:57 PM 40.2272 -84.3056 94° East 516 594 35,000 97 Climbing Indianapolis Center
Tue 02:46:59 PM 40.2194 -84.1147 93° East 519 597 35,000 -48 Level Indianapolis Center
Tue 02:48:01 PM 40.2108 -83.9236 93° East 522 601 34,900 -48 Descending Indianapolis Center
Tue 02:49:03 PM 40.2011 -83.7322 94° East 521 600 34,900 48 Level Indianapolis Center
Tue 02:50:05 PM 40.1914 -83.5406 94° East 519 597 35,000 49 Climbing Indianapolis Center
Tue 02:51:06 PM 40.1814 -83.3492 94° East 519 597 35,000  Level Indianapolis Center
Tue 02:52:08 PM 40.1717 -83.1578 94° East 518 596 35,000  Level Indianapolis Center
Tue 02:53:10 PM 40.1578 -82.9358 95° East 518 596 35,000 -48 Level Indianapolis Center
Tue 02:54:12 PM 40.1467 -82.7456 94° East 520 598 34,900  Descending Indianapolis Center
Tue 02:55:14 PM 40.1367 -82.5550 94° East 520 598 35,000  Climbing Indianapolis Center
Tue 02:56:16 PM 40.1244 -82.3628 95° East 524 603 34,900  Descending Indianapolis Center
Tue 02:57:18 PM 40.1125 -82.1719 95° East 522 601 35,000 48 Climbing Indianapolis Center
Tue 02:58:20 PM 40.1011 -81.9806 94° East 523 602 35,000  Level Indianapolis Center
Tue 02:59:21 PM 40.0875 -81.7883 95° East 526 605 35,000  Level Indianapolis Center
Tue 03:00:23 PM 40.0736 -81.5967 95° East 523 602 35,000  Level Indianapolis Center
Tue 03:01:25 PM 40.0603 -81.4039 95° East 528 608 35,000  Level Indianapolis Center
Tue 03:02:27 PM 40.0442 -81.1806 95° East 528 608 35,000  Level Indianapolis Center
Tue 03:03:26 PM 40.0039 -81.0058 107° East 511 588 35,000  Level Cleveland Center
Tue 03:04:26 PM 39.9461 -80.8322 113° Southeast 516 594 35,000  Level Cleveland Center
Tue 03:05:26 PM 39.8794 -80.6589 117° Southeast 522 601 35,000  Level Cleveland Center
Tue 03:06:26 PM 39.8128 -80.4939 118° Southeast 522 601 35,000  Level Cleveland Center
Tue 03:07:26 PM 39.7458 -80.3267 117° Southeast 522 601 35,000 -589 Level Cleveland Center
Tue 03:09:09 PM 39.6394 -80.0542 117° Southeast 526 605 33,400 -1,472 Descending Washington Center
Tue 03:10:09 PM 39.5725 -79.8883 118° Southeast 526 605 31,000 -2,300 Descending Washington Center
Tue 03:11:09 PM 39.5356 -79.6953 104° East 502 578 28,800 -2,000 Descending Washington Center
Tue 03:12:09 PM 39.5014 -79.5319 105° East 495 570 27,000 -1,550 Descending Washington Center
Tue 03:13:09 PM 39.4731 -79.3744 103° East 473 544 25,700 -1,350 Descending Washington Center
Tue 03:14:09 PM 39.4481 -79.2414 104° East 448 516 24,300 -1,650 Descending Washington Center
Tue 03:15:09 PM 39.4231 -79.0978 103° East 425 489 22,400 -1,950 Descending Washington Center
Tue 03:16:09 PM 39.3978 -78.9622 104° East 404 465 20,400 -2,000 Descending Washington Center
Tue 03:17:09 PM 39.3722 -78.8294 104° East 389 448 18,400 -2,000 Descending Washington Center
Tue 03:18:09 PM 39.3486 -78.6969 103° East 376 433 16,400 -1,700 Descending Washington Center
Tue 03:19:09 PM 39.3231 -78.5561 103° East 376 433 15,000 -1,700 Descending Washington Center
Tue 03:20:09 PM 39.3028 -78.4453 103° East 370 426 13,000 -1,800 Descending Washington Center
Tue 03:21:09 PM 39.2678 -78.3342 112° Southeast 352 405 11,400 -1,150 Descending Washington Center
Tue 03:22:09 PM 39.2200 -78.2358 122° Southeast 334 384 10,700 -1,050 Descending Washington Center
Tue 03:23:09 PM 39.1739 -78.1539 126° Southeast 305 351 9,300 -1,300 Descending Washington Center
Tue 03:24:09 PM 39.1278 -78.0667 124° Southeast 299 344 8,100 -1,300 Descending Washington Center
Tue 03:25:09 PM 39.0833 -77.9850 125° Southeast 289 333 6,700 -1,050 Descending Washington Center
Tue 03:26:09 PM 39.0392 -77.9006 124° Southeast 289 333 6,000 -350 Descending Washington Center
Tue 03:27:09 PM 38.9931 -77.8111 124° Southeast 283 326 6,000  Level Washington Center
Tue 03:28:09 PM 38.9631 -77.7353 117° Southeast 273 314 6,000  Level Washington Center
Tue 03:30:05 PM 38.9000 -77.6000 121° Southeast 249 287 6,000  Level Potomac TRACON
Tue 03:30:59 PM 38.8500 -77.5667 153° Southeast 223 257 6,000 -600 Level Potomac TRACON
Tue 03:32:05 PM 38.7833 -77.5667 180° South 201 231 4,800 -992 Descending Potomac TRACON
Tue 03:33:00 PM 38.7667 -77.5167 113° Southeast 210 242 4,000 -574 Descending Potomac TRACON
Tue 03:34:00 PM 38.8000 -77.4667 49° Northeast 193 222 3,700 -300 Descending Potomac TRACON

Login

Don't have an account? Register now (free) for customized features, flight alerts, and more!